This is the latest recevied weather packets stored in our database for station/object SP3WRO-2. If no packets are shown the sender has not sent any weather packets the latest 10 day(s).
| Time | Temp. | Humidity | Pressure | Rain* | Wind** | Luminosity | Snow |
|---|---|---|---|---|---|---|---|
| 1787765185 | 19.44° C | 64% | 1018.5 hPa | - | - | 19 W/m² | - |
| 1787764284 | 20° C | 61% | 1018.4 hPa | - | - | 27 W/m² | - |
| 1787763383 | 20.56° C | 60% | 1018.4 hPa | - | - | 34 W/m² | - |
| 1787762482 | 21.11° C | 54% | 1018.3 hPa | - | - | 41 W/m² | - |
| 1787761581 | 21.67° C | 55% | 1018.3 hPa | - | - | 48 W/m² | - |
| 1787760680 | 21.67° C | 57% | 1018.2 hPa | - | - | 60 W/m² | - |
| 1787759779 | 21.11° C | 56% | 1018.2 hPa | - | - | 58 W/m² | - |
| 1787758878 | 21.67° C | 52% | 1018.1 hPa | - | - | 68 W/m² | - |
| 1787757977 | 22.78° C | 52% | 1018.2 hPa | - | - | 112 W/m² | - |
| 1787757077 | 22.78° C | 48% | 1018.1 hPa | - | - | 212 W/m² | - |
| 1787756175 | 22.78° C | 49% | 1018.3 hPa | - | - | 281 W/m² | - |
| 1787755274 | 22.78° C | 50% | 1018.3 hPa | - | - | 329 W/m² | - |
| 1787754373 | 22.22° C | 52% | 1018.3 hPa | - | - | 401 W/m² | - |
| 1787753473 | 22.78° C | 52% | 1018.4 hPa | - | - | 120 W/m² | - |
| 1787752571 | 23.33° C | 49% | 1018.4 hPa | - | - | 515 W/m² | - |
| 1787751671 | 22.78° C | 52% | 1018.4 hPa | - | - | 496 W/m² | - |
| 1787750769 | 22.22° C | 52% | 1018.4 hPa | - | - | 517 W/m² | - |
| 1787749869 | 21.67° C | 54% | 1018.6 hPa | - | - | 579 W/m² | - |
| 1787748967 | 22.22° C | 55% | 1018.6 hPa | - | - | 147 W/m² | - |
| 1787748067 | 21.67° C | 60% | 1018.6 hPa | - | - | 512 W/m² | - |
| 1787747165 | 21.67° C | 60% | 1018.7 hPa | - | - | 423 W/m² | - |
| 1787745361 | 22.78° C | 57% | 1018.8 hPa | - | - | 751 W/m² | - |
| 1787744460 | 22.22° C | 55% | 1018.9 hPa | - | - | 712 W/m² | - |
| 1787743560 | 22.78° C | 55% | 1018.9 hPa | - | - | 773 W/m² | - |
| 1787741755 | 22.78° C | 56% | 1019.2 hPa | - | - | 809 W/m² | - |
* Rain since midnight (hover to see other rain measurements)
** Current wind speed in m/s (hover to see current wind gust speed)